GM4SUF Edderton UK current weather conditions

sailwx.info

Wind from 217 at 5 knots gusting 11

Air temperature 14.4° C
Dewpoint 11.8° C

Last reported at 2019-Aug-21 19:45 UTC.
Time now 2019-Aug-21 20:21 UTC

Location: N 57°50' W 004°11'.
View on Google Maps.

See reports from other nearby stations

  
Tides and Currents Weather Stations Pressure Air Temp Water Temp Dewpoint Dewpoint Depression Visibility Wind Speed Wind Dir Waves Ship Positions
date/time (UTC)wind fromknots sea level pressurealtimeterstation pressurevisibilityair tempwater tempwave heightnotes
2019-Aug-21 19:45 217 5 gusting 11 14.4
2019-Aug-21 19:00 178 2 gusting 10 15.0
2019-Aug-21 18:45 208 1 gusting 2 15.0
2019-Aug-21 18:30 225 0 gusting 6 15.6
2019-Aug-21 18:15 184 1 gusting 7 16.1
2019-Aug-21 18:00 193 4 gusting 8 16.1
2019-Aug-21 17:45 197 1 gusting 6 16.1
2019-Aug-21 17:15 019 17.2
2019-Aug-21 16:45 214 2 gusting 8 16.7
2019-Aug-21 16:15 172 4 gusting 17 16.1
2019-Aug-21 16:00 159 4 gusting 10 15.6
2019-Aug-21 15:45 189 4 gusting 12 15.6
2019-Aug-21 15:30 196 4 gusting 11 15.6
2019-Aug-21 15:00 195 6 gusting 17 16.7
2019-Aug-21 14:45 177 5 gusting 10 16.7
2019-Aug-21 14:30 167 6 gusting 12 16.7
2019-Aug-21 14:15 161 4 gusting 14 17.2
2019-Aug-21 13:45 170 5 gusting 11 17.2
2019-Aug-21 13:00 192 4 gusting 13 17.8
2019-Aug-21 12:30 173 5 gusting 12 18.3
2019-Aug-21 12:15 167 5 gusting 18 18.3
2019-Aug-21 10:30 186 4 gusting 13 18.3
2019-Aug-21 09:30 190 7 gusting 13 17.8
2019-Aug-21 09:15 182 4 gusting 7 17.2
2019-Aug-21 08:30 208 2 gusting 12 15.6
2019-Aug-21 08:00 047 1 gusting 5 15.0
2019-Aug-21 07:45 045 0 gusting 4 15.0
2019-Aug-21 07:30 128 0 gusting 2 13.3
2019-Aug-21 07:15 101 1 gusting 2 12.8
2019-Aug-21 07:00 144 11.7
2019-Aug-21 06:45 144 0 gusting 1 11.1
2019-Aug-21 06:30 144 0 gusting 1 10.6
2019-Aug-21 06:15 144 10.6
2019-Aug-21 06:00 155 1 gusting 4 10.6
2019-Aug-21 05:30 203 10.0
2019-Aug-21 04:45 204 0 gusting 1 9.4
2019-Aug-21 04:30 204 1 gusting 2 9.4
2019-Aug-21 03:15 224 0 gusting 1 8.3
2019-Aug-21 03:00 224 1 gusting 2 8.3
2019-Aug-21 02:45 224 8.3
2019-Aug-21 02:15 224 0 gusting 1 8.3
2019-Aug-21 02:00 224 1 gusting 2 8.3
2019-Aug-21 01:45 224 0 gusting 2 8.3
2019-Aug-21 01:15 224 0 gusting 2 7.8
2019-Aug-21 01:00 224 0 gusting 2 7.8
2019-Aug-21 00:30 224 1 gusting 2 7.8
2019-Aug-21 00:15 224 0 gusting 2 7.8
2019-Aug-20 23:30 224 0 gusting 2 8.9
2019-Aug-20 23:15 243 0 gusting 2 8.9
2019-Aug-20 23:00 246 0 gusting 2 8.9
2019-Aug-20 22:45 248 1 gusting 2 9.4
2019-Aug-20 22:30 248 0 gusting 2 10.0
2019-Aug-20 22:15 248 10.6
2019-Aug-20 22:00 238 1 gusting 2 11.7
2019-Aug-20 21:30 238 0 gusting 4 12.2
2019-Aug-20 21:00 199 0 gusting 1 12.8
2019-Aug-20 20:15 199 0 gusting 2 13.9
2019-Aug-20 20:00 199 0 gusting 2 13.9
2019-Aug-20 19:30 199 14.4
2019-Aug-20 19:15 199 0 gusting 1 15.0
2019-Aug-20 18:45 199 15.0
2019-Aug-20 18:30 199 1 gusting 2 15.6
2019-Aug-20 18:15 199 1 gusting 4 15.6
2019-Aug-20 18:00 200 0 gusting 4 15.6
2019-Aug-20 17:30 125 1 gusting 4 16.1
2019-Aug-20 17:15 150 2 gusting 5 16.7
2019-Aug-20 16:45 107 17.2
2019-Aug-20 16:30 104 1 gusting 4 17.2
2019-Aug-20 16:15 106 0 gusting 2 17.2
2019-Aug-20 15:45 106 1 gusting 2 17.2
2019-Aug-20 15:30 066 1 gusting 4 17.8
2019-Aug-20 15:00 328 1 gusting 4 17.8
2019-Aug-20 14:30 331 2 gusting 7 17.8
2019-Aug-20 14:15 017 4 gusting 8 17.8
2019-Aug-20 14:00 332 3 gusting 10 16.7
2019-Aug-20 13:45 321 6 gusting 12 17.8
2019-Aug-20 13:15 336 4 gusting 10 17.8
2019-Aug-20 12:00 301 3 gusting 10 15.6
2019-Aug-20 11:45 277 5 gusting 10 15.6
2019-Aug-20 11:00 320 1 gusting 7 15.0
2019-Aug-20 10:15 270 4 gusting 6 14.4
2019-Aug-20 09:45 271 5 gusting 11 14.4
2019-Aug-20 09:30 278 4 gusting 10 13.9
2019-Aug-20 09:15 283 5 gusting 10 13.3
2019-Aug-20 08:45 323 1 gusting 6 13.3
2019-Aug-20 08:30 246 4 gusting 8 12.8
2019-Aug-20 07:45 260 4 gusting 8 11.7
2019-Aug-20 07:30 261 2 gusting 6 12.2
2019-Aug-20 07:00 317 1 gusting 5 11.1
2019-Aug-20 06:45 240 11.1
2019-Aug-20 06:30 283 1 gusting 2 10.6
2019-Aug-20 06:15 264 0 gusting 2 10.6
2019-Aug-20 05:45 270 2 gusting 4 10.0
2019-Aug-20 05:30 278 1 gusting 2 9.4
2019-Aug-20 04:45 240 1 gusting 4 9.4
2019-Aug-20 04:15 290 0 gusting 5 10.6
2019-Aug-20 04:00 275 2 gusting 7 10.6
2019-Aug-20 03:00 276 4 gusting 6 10.6
2019-Aug-20 01:45 263 2 gusting 7 11.1
2019-Aug-20 01:30 277 4 gusting 7 11.1
2019-Aug-20 00:45 266 4 gusting 7 11.1
2019-Aug-19 23:45 282 1 gusting 6 11.7
2019-Aug-19 22:30 266 4 gusting 8 11.7
2019-Aug-19 22:15 297 2 gusting 8 11.7
2019-Aug-19 21:30 279 1 gusting 10 11.7
2019-Aug-19 21:00 277 4 gusting 12 11.7
2019-Aug-19 20:15 286 4 gusting 11 12.2
2019-Aug-19 20:00 283 0 gusting 5 12.2